GFSFLT2_850_thetae_168.txt.gz
Theta_e
307 307 308 307 307 307 306 302 306 308 308 308 306 304 301 301 300 298 297 298 301 303 304 304 303 303 303
303 305 305 305 305 305 300 299 305 306 307 307 302 301 299 297 296 296 296 296 295 295 295 296 296 296 296
298 299 298 297 298 297 296 297 303 306 306 303 298 295 295 295 295 295 295 295 296 296 296 296 296 297 297
296 295 295 295 294 294 294 295 299 302 302 298 295 294 294 294 294 295 295 295 296 296 296 296 296 295 295
296 295 295 294 294 293 293 293 294 295 295 294 293 293 294 294 294 294 295 295 295 295 295 295 295 295 294
296 295 295 294 293 293 293 293 293 293 292 292 293 293 293 293 294 294 294 294 294 294 294 294 293 293 293
296 295 295 294 293 293 292 292 292 292 292 292 292 292 293 293 293 293 294 293 293 293 293 293 292 292 292
296 296 295 294 293 292 292 292 292 292 292 291 292 292 292 292 293 293 294 293 293 293 292 291 291 291 291
297 296 295 294 293 292 292 291 291 291 292 291 291 291 291 292 292 293 293 292 292 292 292 291 291 291 290
299 297 295 295 294 292 291 291 291 290 291 290 290 290 290 291 292 292 292 292 292 291 291 291 290 290 290
298 297 296 295 294 293 291 291 290 290 290 289 290 290 290 291 291 291 291 290 290 290 290 290 289 289 289
298 297 296 295 294 293 292 291 290 290 289 289 288 289 289 289 289 290 290 290 289 289 289 289 289 288 288
298 298 297 296 294 293 292 291 290 290 290 289 289 288 288 288 288 289 289 289 289 289 289 289 288 288 288
297 297 296 295 294 293 292 293 292 290 290 289 289 288 288 288 288 288 288 288 289 289 288 288 288 288 288
297 297 297 296 294 293 293 293 293 291 291 289 289 288 288 288 287 288 288 290 294 294 289 289 288 287 287
296 296 295 295 294 294 293 293 293 291 291 291 289 288 288 288 288 289 292 294 293 290 288 287 287 287 287
296 294 293 294 293 293 293 293 292 291 291 289 290 290 289 289 290 291 292 291 291 288 287 285 285 287 288

GFSFLT2_850_thetae_171.txt.gz
Theta_e
299 301 301 303 307 306 304 304 300 300 306 308 308 305 303 302 301 299 298 300 304 305 305 306 306 307 307
298 299 302 298 298 298 298 296 296 298 305 306 307 303 300 298 298 297 296 296 296 295 296 296 296 297 297
298 297 297 297 297 296 294 294 294 295 300 304 304 300 296 295 294 294 295 295 296 296 296 296 296 296 296
297 297 296 296 295 295 294 294 294 294 295 296 297 296 294 293 294 294 295 295 295 296 296 296 296 296 296
297 297 296 296 295 295 294 293 293 293 293 294 294 293 293 294 294 294 294 295 295 295 295 295 295 295 295
298 297 297 296 295 294 293 292 293 293 293 293 293 293 293 294 294 294 294 294 294 294 294 294 294 294 294
299 298 297 296 296 295 293 292 292 292 293 292 292 292 292 293 293 293 293 294 294 294 294 294 294 293 293
302 300 298 296 296 295 294 292 292 292 292 291 292 292 292 292 292 292 293 293 293 293 293 293 293 293 292
301 301 300 298 296 296 295 293 292 292 292 291 291 291 291 291 291 291 292 293 292 292 292 292 292 292 292
300 300 300 299 297 296 295 294 292 291 291 291 291 290 290 291 291 291 291 292 292 292 291 291 291 291 291
299 299 299 299 298 297 295 294 292 291 290 290 290 290 290 290 290 291 291 291 291 290 290 290 290 291 291
298 298 298 297 297 296 295 294 293 291 290 289 289 289 289 289 288 289 289 290 290 290 290 290 290 290 290
297 298 298 297 297 296 295 294 293 291 291 290 291 291 289 288 288 288 288 289 289 289 289 290 290 289 290
298 298 297 297 297 296 295 294 293 292 291 291 291 289 289 289 288 288 288 288 289 289 289 292 294 292 293
296 296 296 296 296 296 295 294 293 293 292 293 293 292 291 288 289 289 288 288 288 288 293 294 294 292 294
296 296 295 295 295 294 294 293 294 293 293 293 292 290 290 290 290 289 288 288 289 292 293 293 294 293 291
295 295 295 294 293 293 292 292 292 292 292 292 291 290 290 290 290 291 291 291 291 292 291 290 290 292 288

GFSFLT2_850_thetae_174.txt.gz
Theta_e
303 303 300 298 298 298 297 297 297 296 297 303 306 307 303 302 302 301 300 299 298 302 305 306 305 307 309
302 301 299 297 298 297 296 295 295 295 295 298 302 305 304 299 297 298 298 298 297 297 297 297 297 297 298
301 300 299 297 297 296 295 295 295 294 294 295 297 299 299 297 295 295 295 295 296 296 296 297 297 297 297
301 300 299 298 297 296 296 295 295 294 294 294 294 294 294 294 294 294 294 295 295 296 296 297 297 297 297
302 301 300 299 297 297 296 295 294 294 294 294 294 293 293 293 293 294 294 294 295 295 295 295 295 295 295
304 303 302 299 298 297 296 296 295 295 294 294 293 293 293 293 293 293 294 294 294 294 294 294 294 295 295
303 304 302 300 298 297 296 295 294 293 293 293 293 293 292 292 293 293 293 293 293 293 294 294 294 294 294
303 303 302 300 298 297 296 295 295 294 293 292 293 292 292 292 292 292 292 292 292 293 293 293 293 293 293
301 301 301 300 299 298 298 296 296 295 294 292 292 292 291 291 291 291 291 291 292 292 292 292 292 292 292
299 299 299 299 299 298 297 296 296 294 294 292 292 291 291 291 291 291 291 291 291 291 291 291 291 291 291
299 299 299 299 299 298 298 296 295 295 293 291 291 290 290 290 290 290 290 290 291 290 290 290 290 290 291
299 298 298 298 298 298 297 296 295 294 292 291 290 290 289 289 289 290 289 289 289 289 289 290 289 290 290
296 297 297 297 297 297 296 296 295 295 293 292 290 289 289 292 292 291 289 289 288 288 289 289 289 289 290
295 295 295 296 296 296 296 296 295 295 294 292 291 290 290 291 289 289 289 288 289 288 288 288 288 294 294
294 295 295 295 295 295 295 295 294 294 294 293 292 291 292 292 292 292 290 290 289 288 288 289 291 293 293
295 294 294 294 294 293 293 293 292 293 293 293 293 292 291 292 291 291 290 290 288 288 288 290 291 292 292
295 294 294 294 294 293 292 292 292 292 292 292 292 291 290 290 291 291 290 291 291 291 291 291 291 292 291

GFSFLT2_850_thetae_177.txt.gz
Theta_e
304 302 303 302 300 298 297 297 296 295 295 295 297 303 306 303 300 300 300 299 299 298 299 303 306 307 309
304 303 302 301 299 298 297 296 296 295 295 295 295 297 301 301 298 297 297 297 296 296 296 296 296 297 299
305 305 303 301 300 298 297 297 296 295 295 294 294 294 295 296 296 295 295 295 295 295 296 296 296 296 297
305 305 304 303 301 299 299 297 296 296 295 294 294 294 294 294 294 293 294 294 295 295 296 296 296 296 296
304 304 304 303 302 300 299 298 297 297 296 295 294 294 293 293 293 293 293 294 294 294 295 295 296 296 296
304 304 304 304 302 301 299 298 297 297 296 295 294 294 293 293 293 293 293 294 294 294 294 294 294 294 295
303 304 304 304 302 301 300 298 298 297 296 297 295 295 293 293 293 293 292 293 293 293 293 293 294 294 294
303 303 302 302 302 301 300 299 298 298 296 296 296 295 293 293 292 292 292 292 292 292 292 293 293 293 293
300 300 300 300 300 300 299 298 298 298 297 295 296 294 293 292 292 292 291 291 291 291 292 292 292 292 292
299 299 299 299 299 298 298 298 297 296 298 295 294 292 291 292 292 291 291 291 291 291 291 291 291 291 291
299 299 299 298 298 298 298 297 296 296 295 294 293 292 290 290 291 290 290 290 290 290 290 290 290 291 291
298 298 297 297 297 296 297 297 296 296 294 294 292 292 291 290 289 290 291 293 290 289 289 289 289 290 290
296 296 296 296 296 296 296 296 297 297 296 295 293 292 290 290 289 289 291 293 291 290 289 288 288 289 289
294 294 294 294 294 295 295 296 296 296 295 295 294 293 292 290 289 289 292 290 289 289 288 288 288 288 288
294 294 294 294 294 294 294 295 295 295 294 294 293 293 292 291 291 292 292 292 292 289 290 289 288 288 290
294 294 294 294 294 294 294 293 293 293 292 292 292 292 292 292 292 292 292 291 290 289 288 288 289 290 291
291 292 293 293 293 293 293 293 292 292 291 291 291 291 290 290 291 291 291 291 290 290 290 290 290 291 291

GFSFLT2_850_thetae_183.txt.gz
Theta_e
306 306 306 306 306 305 304 302 300 298 297 296 296 295 295 296 298 301 301 299 300 300 299 299 302 308 316
306 306 306 306 306 305 305 304 301 299 298 297 296 295 295 295 295 297 298 297 296 297 297 297 297 298 300
306 306 306 305 305 305 305 304 303 302 300 298 297 296 295 295 294 294 295 295 294 295 295 295 296 296 297
305 305 305 305 305 305 304 304 304 303 302 300 298 297 296 295 294 294 294 294 294 294 294 295 295 296 296
304 304 305 304 304 304 304 304 304 304 303 301 300 298 295 294 294 294 293 293 293 294 294 294 295 295 295
303 303 303 303 303 303 303 303 303 303 303 301 299 298 298 297 295 294 293 293 293 293 293 294 294 294 294
302 302 302 303 302 302 303 303 303 303 302 302 301 301 299 298 298 296 294 293 293 293 292 292 292 293 293
300 301 302 302 301 301 301 301 301 301 301 301 301 301 299 299 298 297 295 293 293 292 292 292 292 292 292
298 298 298 298 299 299 300 300 300 300 299 298 300 299 299 299 298 296 294 293 292 292 292 292 291 291 292
299 299 299 298 298 298 299 299 298 297 298 297 298 297 297 296 295 294 293 292 291 291 291 291 291 291 291
297 298 298 298 298 298 298 297 297 296 296 296 296 296 295 294 291 290 290 290 290 290 290 291 290 290 290
296 296 296 297 297 296 296 296 296 296 296 296 295 296 295 295 294 294 293 291 290 289 293 293 293 291 289
295 295 295 295 295 295 294 294 295 295 296 296 296 295 295 295 294 294 293 292 290 289 291 292 293 292 290
293 294 294 295 294 294 294 294 294 294 295 295 295 295 295 294 294 294 293 292 292 291 290 292 291 290 290
292 293 293 292 292 293 293 293 294 293 294 294 294 295 294 293 293 293 293 293 293 291 290 290 293 292 292
292 291 291 290 291 291 292 292 293 293 293 293 293 293 293 293 292 292 293 293 293 292 291 292 293 292 290
290 291 291 290 290 290 290 291 291 292 292 292 292 292 291 292 291 291 292 292 291 291 291 291 291 291 290